STARLINK-2419, 47830

Orbit data source: Space-Track

STARLINK-2419, 47830 is a payload satellite owned by SpaceX/Seattle (US) in LEO that was launched on Thu, 11 Mar 2021 UTC via an FALCON 9 launch vehicle from the Air Force Eastern Test Range (AFETR). Payload-class satellites include a variety of spacecraft equipped with specific instruments for various scientific and technological missions. These include communications satellites like Starlink; space stations such as the ISS; scientific satellites like the Hubble; Earth observation satellites from companies like Planet Labs, Umbra, and HawkEye 360; GPS; miniature CubeSats for education and research; and military/defense satellites.

Loading next visibility...
Identifier
47830, 2021-018AV
Orbit
LEO
Country
Flag of USUS
Related business
Manufacturer
SpaceX/Seattle
Mission
Operational Commercial Communications
Bus & Motor
STARLINK, Unknown motor
Mass
260 kg wet, ~248 kg dry
Launch date (UTC)
2021-03-11 (5 years ago)
Launch vehicle
FALCON 9
Launch site
Air Force Eastern Test Range (AFETR)
Object type
Payload
Rocket body
Debris
Shape & HBR
Box + 1 Pan, 10.1 m
Radar Cross Section
13.562 m², Large (>1 m²)

Expand to show TLE details & history
Last TLE update: 22 hours ago

TLE from 22 hours ago
0 STARLINK-2419
1 47830U 21018AV  25292.08610101  .00010745  00000-0  73893-3 0  9991
2 47830  53.0536 177.3006 0001503  97.9660 262.1499 15.06411428255104
Epoch: 2025-10-19T02:03Z
TLE epoch observation values (Epoch: 2025-10-19T02:03:59.127Z)
Latitude
-0.00006°
Longitude
118.49638°
Altitude
548.198 km
Speed
7.589 km/s
True Right ascension
11h 49m 12s
True Declination
0° 00' 00"
Sunlit
Object was in daylight at epoch
Visualization orbit readout
Latitude
Unknown
Longitude
Unknown
Altitude
Unknown
Speed
Unknown
Apparent Right ascension
Unknown
Apparent Declination
Unknown
Sunlit
N/A
Visualization observer readout
Local Sidereal Time
19:00:57
Azimuth
Unknown
Elevation
Unknown
Doppler factor
Unknown
Orbital elements
Apogee altitude
548.488 km
Perigee altitude
546.406 km
Semi-major axis
6,925.584 km
Eccentricity
0.00015
Inclination
53.0536°
RAAN
177.3006°
Arg. of periapsis
97.966°
True anomaly
262.13284°
Mean anomaly
262.1499°
Eccentric anomaly
262.14137°
Mean motion
3.76581 °/min
Orbital period
95.6 mins
BSTAR
0.00073893
Loading maneuver chart data...
Computing Atmospheric mass density...

Documentation

Showing up to 5 results
|